Weather History for KSEP - June, 2013

Change the Weather History Date:

Friday, June 28, 2013

  Actual Average Record
Temperature  
Mean Temperature 88 °F -  
Max Temperature 105 °F 91 °F 109 °F (1980)
Min Temperature 73 °F 68 °F 54 °F (1974)
Cooling Degree Days 24    
Growing Degree Days 38 (Base 50)    
Moisture  
Dew Point 57 °F    
Average Humidity 36    
Maximum Humidity 56    
Minimum Humidity 16    
Precipitation  
Precipitation 0.00 in - - ()
Sea Level Pressure  
Sea Level Pressure 29.97 in    
Wind  
Wind Speed 4 mph (NNW)    
Max Wind Speed 14 mph    
Max Gust Speed 21 mph    
Visibility 10 miles    
Events      
Averages and records for this station are not official NWS values.
T = Trace of Precipitation, MM = Missing Value Source: NWS Daily Summary

Daily Weather History Graph

Daily Weather History Graph

Search for Another Location

Airport or City:

Trip Planner

Search our weather history database for the weather conditions in past years. The results will help you decide how hot, cold, wet, or windy it might be!

Date:

Astronomy

Jun. 28, 2013 Rise Set
Actual Time 6:28 AM CDT 8:43 PM CDT
Civil Twilight 6:00 AM CDT 9:11 PM CDT
Nautical Twilight 5:25 AM CDT 9:46 PM CDT
Astronomical Twilight 4:48 AM CDT 10:23 PM CDT
Moon 12:01 AM CDT (6/28) 12:15 PM CDT (6/28)
Length of Visible Light 15h 11m
Length of Day
14h 14m
Waning Gibbous, 66% of the Moon is Illuminated
Jun 28
Waning Gibbous
Jun 29
Last Quarter
Jul 8
New
Jul 15
First Quarter
Jul 22
Full

Hourly Weather History & Observations

Time (CDT) Temp. Heat Index Dew Point Humidity Pressure Visibility Wind Dir Wind Speed Gust Speed Precip Events Conditions
12:15 AM 81.9 °F 81.7 °F 57.4 °F 43% 30.02 in 10.0 mi Calm Calm - N/A   Unknown
12:35 AM 80.8 °F 81.0 °F 57.4 °F 45% 30.01 in 10.0 mi Calm Calm - N/A   Unknown
12:55 AM 79.9 °F - 57.7 °F 47% 30.01 in 10.0 mi Calm Calm - N/A   Unknown
1:35 AM 79.2 °F - 57.0 °F 46% 30.02 in 10.0 mi Calm Calm - N/A   Unknown
1:55 AM 78.4 °F - 57.2 °F 48% 30.00 in 10.0 mi South 3.5 mph - N/A   Unknown
2:15 AM 77.9 °F - 57.7 °F 50% 30.00 in 10.0 mi Calm Calm - N/A   Unknown
2:35 AM 77.2 °F - 57.9 °F 51% 30.00 in 10.0 mi Calm Calm - N/A   Unknown
2:55 AM 77.4 °F - 57.2 °F 50% 29.99 in 10.0 mi Calm Calm - N/A   Unknown
3:15 AM 77.0 °F - 57.2 °F 50% 29.99 in 10.0 mi Calm Calm - N/A   Unknown
3:35 AM 77.5 °F - 56.3 °F 48% 29.99 in 10.0 mi Calm Calm - N/A   Unknown
3:55 AM 75.7 °F - 57.6 °F 53% 29.98 in 10.0 mi Calm Calm - N/A   Unknown
4:15 AM 75.6 °F - 57.0 °F 52% 29.99 in 10.0 mi Calm Calm - N/A   Unknown
4:35 AM 76.5 °F - 56.3 °F 50% 29.99 in 10.0 mi Calm Calm - N/A   Unknown
4:55 AM 75.6 °F - 56.5 °F 51% 29.99 in 10.0 mi Calm Calm - N/A   Unknown
5:15 AM 74.5 °F - 57.2 °F 55% 29.98 in 10.0 mi Calm Calm - N/A   Unknown
5:35 AM 73.9 °F - 57.2 °F 56% 29.99 in 10.0 mi South 3.5 mph - N/A   Unknown
5:55 AM 73.8 °F - 57.2 °F 56% 29.98 in 10.0 mi SW 4.6 mph - N/A   Unknown
6:15 AM 74.8 °F - 56.1 °F 52% 30.00 in 10.0 mi WSW 4.6 mph - N/A   Unknown
6:35 AM 75.9 °F - 55.4 °F 49% 30.00 in 10.0 mi WSW 3.5 mph - N/A   Unknown
6:55 AM 76.1 °F - 55.4 °F 49% 30.00 in 10.0 mi WSW 3.5 mph - N/A   Unknown
7:55 AM 77.9 °F - 56.3 °F 47% 30.02 in 10.0 mi WSW 3.5 mph - N/A   Unknown
8:15 AM 78.8 °F - 56.8 °F 47% 30.03 in 10.0 mi Calm Calm - N/A   Unknown
8:35 AM 79.7 °F - 56.5 °F 45% 30.03 in 10.0 mi WSW 3.5 mph - N/A   Unknown
8:55 AM 81.0 °F 80.8 °F 55.9 °F 42% 30.03 in 10.0 mi SW 4.6 mph - N/A   Unknown
9:15 AM 82.9 °F 82.0 °F 54.7 °F 38% 30.03 in 10.0 mi SW 6.9 mph - N/A   Unknown
9:35 AM 84.6 °F 83.2 °F 55.2 °F 36% 30.03 in 10.0 mi WSW 5.8 mph - N/A   Unknown
9:55 AM 86.0 °F 84.5 °F 55.0 °F 35% 30.02 in 10.0 mi SW 9.2 mph - N/A   Unknown
10:15 AM 87.3 °F 85.9 °F 56.3 °F 35% 30.02 in 10.0 mi WSW 9.2 mph - N/A   Unknown
10:35 AM 88.0 °F 86.9 °F 58.1 °F 36% 30.02 in 10.0 mi WSW 12.7 mph 16.1 mph N/A   Unknown
10:55 AM 89.8 °F 88.9 °F 58.8 °F 35% 30.02 in 10.0 mi West 12.7 mph 18.4 mph N/A   Unknown
11:15 AM 91.0 °F 90.2 °F 59.2 °F 34% 30.02 in 10.0 mi WSW 12.7 mph 17.3 mph N/A   Unknown
11:35 AM 92.5 °F 91.6 °F 58.6 °F 32% 30.01 in 10.0 mi WSW 11.5 mph 16.1 mph N/A   Unknown
11:55 AM 94.8 °F 94.2 °F 58.6 °F 30% 30.01 in 10.0 mi West 10.4 mph - N/A   Unknown
12:15 PM 96.3 °F 94.4 °F 55.2 °F 25% 30.01 in 10.0 mi West 12.7 mph 20.7 mph N/A   Unknown
12:35 PM 97.5 °F 95.7 °F 54.5 °F 24% 30.00 in 10.0 mi West 11.5 mph 18.4 mph N/A   Unknown
12:55 PM 98.8 °F 96.6 °F 53.8 °F 22% 30.00 in 10.0 mi WNW 9.2 mph 16.1 mph N/A   Unknown
1:15 PM 99.3 °F 97.4 °F 54.0 °F 22% 29.99 in 10.0 mi WNW 8.1 mph 18.4 mph N/A   Unknown
1:35 PM 99.9 °F - 52.7 °F 21% 29.98 in 10.0 mi WNW 9.2 mph - N/A   Unknown
1:55 PM 101.8 °F - 52.9 °F 19% 29.97 in 10.0 mi WNW 12.7 mph 19.6 mph N/A   Unknown
2:15 PM 102.7 °F - 50.7 °F 17% 29.97 in 10.0 mi North 9.2 mph 18.4 mph N/A   Unknown
2:35 PM 103.1 °F - 51.1 °F 17% 29.96 in 10.0 mi NNW 11.5 mph 18.4 mph N/A   Unknown
2:55 PM 103.1 °F - 51.3 °F 18% 29.95 in 10.0 mi NNW 13.8 mph - N/A   Unknown
3:15 PM 103.6 °F - 51.6 °F 18% 29.94 in 10.0 mi WNW 8.1 mph - N/A   Unknown
3:35 PM 103.6 °F - 51.6 °F 18% 29.93 in 10.0 mi North 11.5 mph - N/A   Unknown
3:55 PM 104.9 °F - 50.4 °F 16% 29.92 in 10.0 mi North 8.1 mph 16.1 mph N/A   Unknown
4:15 PM 104.4 °F - 50.9 °F 17% 29.91 in 10.0 mi NE 8.1 mph 16.1 mph N/A   Unknown
4:35 PM 103.5 °F - 52.3 °F 18% 29.91 in 10.0 mi North 11.5 mph 16.1 mph N/A   Unknown
4:55 PM 103.8 °F 102.1 °F 53.6 °F 19% 29.91 in 10.0 mi North 5.8 mph 16.1 mph N/A   Unknown
5:15 PM 103.6 °F 101.8 °F 54.0 °F 19% 29.90 in 10.0 mi NNE 9.2 mph - N/A   Unknown
5:35 PM 102.4 °F 101.6 °F 56.7 °F 22% 29.90 in 10.0 mi NE 10.4 mph 16.1 mph N/A   Unknown
5:55 PM 102.7 °F 102.7 °F 57.9 °F 23% 29.90 in 10.0 mi NNE 6.9 mph 16.1 mph N/A   Unknown
6:15 PM 102.2 °F 101.4 °F 56.8 °F 22% 29.89 in 10.0 mi NE 4.6 mph 9.2 mph N/A   Unknown
6:35 PM 102.2 °F 101.4 °F 56.1 °F 22% 29.89 in 10.0 mi NE 9.2 mph - N/A   Unknown
6:55 PM 101.7 °F 100.1 °F 54.3 °F 21% 29.88 in 10.0 mi NE 12.7 mph - N/A   Unknown
7:15 PM 101.3 °F 99.2 °F 53.2 °F 20% 29.89 in 10.0 mi NE 8.1 mph 16.1 mph N/A   Unknown
7:35 PM 100.2 °F 98.6 °F 54.5 °F 22% 29.89 in 10.0 mi NE 10.4 mph - N/A   Unknown
7:55 PM 98.6 °F 97.6 °F 57.2 °F 25% 29.89 in 10.0 mi NE 9.2 mph - N/A   Unknown
8:15 PM 96.8 °F 95.8 °F 57.2 °F 27% 29.89 in 7.0 mi NE 8.1 mph - N/A   Unknown
8:35 PM 95.2 °F 93.9 °F 57.7 °F 28% 29.90 in 10.0 mi NE 6.9 mph - N/A   Unknown
8:55 PM 93.2 °F 92.6 °F 59.0 °F 32% 29.90 in 10.0 mi NE 8.1 mph - N/A   Unknown
9:15 PM 91.9 °F 91.5 °F 59.7 °F 34% 29.91 in 10.0 mi NE 6.9 mph - N/A   Unknown
9:35 PM 90.9 °F 90.3 °F 59.9 °F 35% 29.92 in 10.0 mi NE 5.8 mph - N/A   Unknown
9:55 PM 89.4 °F 89.2 °F 60.6 °F 38% 29.93 in 10.0 mi NE 5.8 mph - N/A   Unknown
10:15 PM 88.2 °F 88.4 °F 61.5 °F 41% 29.93 in 10.0 mi NE 5.8 mph - N/A   Unknown
10:35 PM 88.3 °F 89.2 °F 63.1 °F 43% 29.94 in 10.0 mi NE 8.1 mph - N/A   Unknown
10:55 PM 87.6 °F 88.8 °F 64.0 °F 45% 29.94 in 10.0 mi NE 5.8 mph - N/A   Unknown
11:15 PM 86.5 °F 88.1 °F 64.6 °F 48% 29.94 in 10.0 mi NE 5.8 mph - N/A   Unknown
11:35 PM 85.3 °F 86.8 °F 64.9 °F 50% 29.94 in 10.0 mi NE 5.8 mph - N/A   Unknown
11:55 PM 84.7 °F 86.6 °F 65.3 °F 52% 29.94 in 10.0 mi NNE 4.6 mph - N/A   Unknown